Regional Weather Roundup
Issued by NWS Kansas City/Pleasant Hill, MO

Home | Current Version | Previous Version | Text Only | Print | Product List | Glossary On
Versions: 1 2 3 4 5 6 7 8 9 10 11 12 13 14 15 16 17 18 19 20 21 22 23 24 25 26 27
000
ASUS43 KEAX 171110
RWREAX

WEATHER ROUNDUP FOR EASTERN KANSAS AND NORTHWEST MISSOURI
NATIONAL WEATHER SERVICE KANSAS CITY/PLEASANT HILL MO
600 AM CDT THU AUG 17 2017

KSZ040-057-103>105-MOZ028-029-037-043-171200-
...KANSAS CITY METROPOLITAN AREA...

CITY           SKY/WX    TMP DP  RH WIND       PRES   REMARKS
K.C. INTL      CLOUDY    65  63  93 W7        29.89R
K.C. DOWNTOWN  CLOUDY    69  65  86 SW5       29.89R
LEES SUMMIT    CLOUDY    67  67 100 W5        29.91R
OLATHE - IXD   CLOUDY    67  64  90 NW8       29.92R
OLATHE - OJC   CLOUDY    66  65  96 NW6       29.91R
LAWRENCE       CLOUDY    65  65 100 CALM      29.91R

$$

MOZ001>008-011>017-020>025-030>033-038>040-044>046-053-054-171200-
...NORTHERN AND CENTRAL MISSOURI...

CITY           SKY/WX    TMP DP  RH WIND       PRES   REMARKS
ST. JOSEPH     CLEAR     64  63  96 NW5       29.89R FOG
WARRENSBURG    CLOUDY    68  66  94 SW5       29.89R
WHITEMAN AFB   MOCLDY    69  69 100 W7        29.88R
CLINTON        CLOUDY    68  68 100 W7        29.90S
SEDALIA        CLOUDY    69  69 100 SW8       29.90S
WARSAW         NOT AVBL
CHILLICOTHE      N/A     68  67  96 CALM      29.87R
KIRKSVILLE     CLOUDY    69  67  93 SW8       29.84R

$$

MOZ041-047>049-056>058-063>065-088>090-097-171200-
...EASTERN AND SOUTHERN MISSOURI...

CITY           SKY/WX    TMP DP  RH WIND       PRES   REMARKS
ST. LOUIS INTL CLOUDY    69  68  96 W8        29.89R
SPIRIT OF STL  CLOUDY    69  68  96 SW9       29.88R
COLUMBIA       CLOUDY    68  67  96 SW9       29.89R
JEFFERSON CITY CLOUDY    70  69  97 S5        29.89R
ROLLA          PTCLDY    66  66 100 S9        29.93S
OSAGE BEACH    CLOUDY    67  66  97 SW6       29.92S
SPRINGFIELD    CLOUDY    67  67 100 S7        29.93S
BRANSON        CLOUDY    68  68 100 CALM      29.94R
JOPLIN         CLOUDY    70  69  97 SW5       29.93S
WEST PLAINS    CLOUDY    68  67  96 S6        29.97S

$$

IAZ060-094-KSZ022-034>040-054-083-096-NEZ052-066-093-171200-
...KANSAS...SOUTHEAST NEBRASKA AND IOWA...

CITY           SKY/WX    TMP DP  RH WIND       PRES   REMARKS
TOPEKA         CLEAR     66  66 100 W3        29.92R
MANHATTAN      CLEAR     64  63  96 CALM      29.95R
EMPORIA        CLEAR     64  63  96 W3        29.95R
CHANUTE        CLOUDY    69  68  96 W5        29.94R FOG
WICHITA        PTCLDY    66  63  90 NW6       29.97R
OMAHA          CLOUDY    66  60  81 W8        29.86R
LINCOLN        CLEAR     64  59  83 W10       29.92R
FALLS CITY     CLEAR     65  61  87 W13       29.89R
LAMONI         CLEAR     63  62  97 W10       29.84R
DES MOINES     CLOUDY    67  63  87 W15       29.77S

$$





USA.gov is the U.S. government's official web portal to all federal, state and local government web resources and services.